Weather History for The Dalles, OR

Change the Weather History Date:

Sunday, May 18, 2014

  Actual Average Record
Temperature  
Mean Temperature 62 °F -  
Max Temperature 70 °F 74 °F 97 °F (1968)
Min Temperature 53 °F 49 °F 36 °F (1966)
Degree Days  
Heating Degree Days 4    
Growing Degree Days 12 (Base 50)    
Moisture  
Dew Point 46 °F    
Average Humidity 60    
Maximum Humidity 75    
Minimum Humidity 44    
Precipitation  
Precipitation 0.00 in - - ()
Sea Level Pressure  
Sea Level Pressure 29.84 in    
Wind  
Wind Speed 10 mph (NW)    
Max Wind Speed 23 mph    
Max Gust Speed 32 mph    
Visibility 10 miles    
Events      
Averages and records for this station are not official NWS values.
T = Trace of Precipitation, MM = Missing Value Source: NWS Daily Summary

Daily Weather History Graph

Daily Weather History Graph

Search for Another Location

Airport:

Trip Planner

Search our weather history database for the weather conditions in past years. The results will help you decide how hot, cold, wet, or windy it might be!

Date:

Astronomy

May. 18, 2014 Rise Set
Actual Time 5:30 AM PDT 8:32 PM PDT
Civil Twilight 4:55 AM PDT 9:07 PM PDT
Nautical Twilight 4:09 AM PDT 9:53 PM PDT
Astronomical Twilight 3:15 AM PDT 10:48 PM PDT
Moon No Moon Rise 9:27 AM PDT (5/18)
Length of Visible Light 16h 12m
Length of Day
15h 02m
Waning Gibbous, 80% of the Moon is Illuminated
May 18
Waning Gibbous
May 21
Last Quarter
May 28
New
Jun 5
First Quarter
Jun 12
Full

Hourly Weather History & Observations

Time (PDT) Temp. Dew Point Humidity Pressure Visibility Wind Dir Wind Speed Gust Speed Precip Events Conditions
12:53 AM 55.0 °F 43.0 °F 64% 29.81 in 10.0 mi WNW 3.5 mph - N/A   Clear
1:53 AM 53.1 °F 42.1 °F 66% 29.81 in 10.0 mi Variable 3.5 mph - N/A   Clear
2:53 AM 57.0 °F 46.0 °F 67% 29.81 in 10.0 mi NW 10.4 mph - N/A   Overcast
3:53 AM 55.9 °F 46.9 °F 72% 29.82 in 10.0 mi WNW 4.6 mph - N/A   Clear
4:53 AM 57.0 °F 46.0 °F 67% 29.81 in 10.0 mi WNW 11.5 mph 20.7 mph N/A   Mostly Cloudy
5:53 AM 55.9 °F 46.9 °F 72% 29.83 in 10.0 mi NW 8.1 mph 17.3 mph N/A   Overcast
6:53 AM 55.9 °F 46.9 °F 72% 29.84 in 10.0 mi NW 8.1 mph - N/A   Overcast
7:53 AM 57.9 °F 46.0 °F 65% 29.84 in 10.0 mi WNW 12.7 mph - N/A   Overcast
8:53 AM 59.0 °F 46.9 °F 64% 29.84 in 10.0 mi NNW 10.4 mph - N/A   Overcast
9:53 AM 62.1 °F 48.0 °F 60% 29.83 in 10.0 mi NNW 11.5 mph - N/A   Clear
10:53 AM 64.0 °F 46.0 °F 52% 29.82 in 10.0 mi NNW 13.8 mph - N/A   Mostly Cloudy
11:53 AM 68.0 °F 48.0 °F 49% 29.81 in 10.0 mi NNW 15.0 mph - 0.00 in   Mostly Cloudy
12:53 PM 66.0 °F 46.0 °F 48% 29.81 in 10.0 mi NNW 16.1 mph 25.3 mph N/A   Mostly Cloudy
1:53 PM 70.0 °F 46.9 °F 44% 29.81 in 10.0 mi NW 17.3 mph 24.2 mph N/A   Mostly Cloudy
2:53 PM 66.9 °F 46.9 °F 49% 29.83 in 10.0 mi NNW 21.9 mph 27.6 mph N/A   Mostly Cloudy
3:53 PM 66.0 °F 46.0 °F 48% 29.83 in 10.0 mi NW 19.6 mph 31.1 mph N/A   Scattered Clouds
4:53 PM 63.0 °F 42.1 °F 46% 29.86 in 10.0 mi NW 23.0 mph 32.2 mph N/A   Mostly Cloudy
5:53 PM 61.0 °F 44.1 °F 54% 29.86 in 10.0 mi NW 13.8 mph - N/A   Clear
6:53 PM 59.0 °F 44.1 °F 58% 29.87 in 10.0 mi NW 18.4 mph - N/A   Partly Cloudy
7:53 PM 57.9 °F 43.0 °F 58% 29.88 in 10.0 mi NW 18.4 mph 24.2 mph N/A   Overcast
8:53 PM 57.0 °F 44.1 °F 62% 29.88 in 10.0 mi WNW 16.1 mph - N/A   Overcast
9:53 PM 57.0 °F 45.0 °F 64% 29.90 in 10.0 mi WNW 12.7 mph - N/A   Mostly Cloudy
10:53 PM 54.0 °F 46.0 °F 75% 29.91 in 10.0 mi WNW 6.9 mph - N/A   Partly Cloudy
11:53 PM 54.0 °F 46.0 °F 75% 29.91 in 10.0 mi WNW 9.2 mph - N/A   Clear